CZ-4 DEB, 27687

Orbit data source: Space-Track

CZ-4 DEB, 27687 is space debris in SSO originally from a launch on Thu, 14 Oct 1999 UTC launched from the Taiyaun Space Center, China (TSC). Debris objects in space refer to the collection of defunct objects orbiting the Earth. Examples of debris include non-operational satellites, rocket bodies, and fragments generated from explosions, collisions, or faulty payload assembly.

Loading next visibility...
Identifier
27687, 1999-057MT
Orbit
SSO
Country
Flag of CNCN / PRC
Related business
Manufacturer
Unknown
Mission
Spacecraft
Bus & Motor
Unknown
Mass
Unknown
Launch date (UTC)
1999-10-14 (26 years ago)
Launch vehicle
Unknown
Launch site
Taiyaun Space Center, China (TSC)
Object type
Payload
Rocket body
Debris
Shape & HBR
Unknown shape, 0.1 m
Radar Cross Section
Small (<0.1 m²)

Expand to show TLE details & history
Last TLE update: 20 hours ago

TLE from 20 hours ago
0 CZ-4 DEB
1 27687U 99057MT  25350.34878565  .00000195  00000-0  76979-4 0  9998
2 27687  98.7772  24.8801 0087450 320.8395  38.6483 14.38088437227154
Epoch: 2025-12-16T08:22Z
TLE epoch observation values (Epoch: 2025-12-16T08:22:15.080Z)
Latitude
-0.00009°
Longitude
174.083°
Altitude
719.179 km
Speed
7.521 km/s
True Right ascension
01h 39m 31s
True Declination
0° 00' 00"
Sunlit
Object was in full shadow at epoch
Visualization orbit readout
Latitude
Unknown
Longitude
Unknown
Altitude
Unknown
Speed
Unknown
Apparent Right ascension
Unknown
Apparent Declination
Unknown
Sunlit
N/A
Visualization observer readout
Local Sidereal Time
03:24:06
Azimuth
Unknown
Elevation
Unknown
Doppler factor
Unknown
Orbital elements
Apogee altitude
824.399 km
Perigee altitude
699.519 km
Semi-major axis
7,140.096 km
Eccentricity
0.00875
Inclination
98.7772°
RAAN
24.8801°
Arg. of periapsis
320.8395°
True anomaly
39.27953°
Mean anomaly
38.6483°
Eccentric anomaly
38.96337°
Mean motion
3.59739 °/min
Orbital period
100.07 mins
BSTAR
0.000076979
Loading maneuver chart data...
Computing Atmospheric mass density...
Loading historical data...
Loading historical data...
Loading historical data...
Loading historical data...
Loading historical data...
Loading historical data...
Loading historical data...

Documentation

Showing up to 5 results
|